Bloomington, IN

12:55 PM EDT on April 25, 2018 (GMT -0400)
Monroe County

Weather History for KBMG - November, 2014

Change the Weather History Date:

Thursday, November 27, 2014

  Actual Average Record
Temperature  
Mean Temperature 27 °F 39 °F  
Max Temperature 31 °F 47 °F 66 °F (2006)
Min Temperature 22 °F 30 °F 15 °F (1996)
Degree Days  
Heating Degree Days 38 26  
Month to date heating degree days 776 555  
Since 1 July heating degree days 1207 974  
Cooling Degree Days 0 0  
Month to date cooling degree days 0 0  
Year to date cooling degree days 904 926  
Moisture  
Dew Point 22 °F    
Average Humidity 81    
Maximum Humidity 92    
Minimum Humidity 69    
Precipitation  
Precipitation T in 0.13 in 1.29 in (2015)
Month to date precipitation 2.38 3.55  
Year to date precipitation 42.55 43.62  
Sea Level Pressure  
Sea Level Pressure 30.34 in    
Wind  
Wind Speed 8 mph (NW)    
Max Wind Speed 16 mph    
Max Gust Speed 20 mph    
Visibility 6 miles    
Events Snow    
T = Trace of Precipitation, MM = Missing Value Source: NWS Daily Summary

Daily Weather History Graph

Daily Weather History Graph

Search for Another Location

Airport or City:

Astronomy

Nov. 27, 2014 Rise Set
Actual Time 7:42 AM EST 5:25 PM EST
Civil Twilight 7:13 AM EST 5:54 PM EST
Nautical Twilight 6:40 AM EST 6:27 PM EST
Astronomical Twilight 6:08 AM EST 6:59 PM EST
Moon 11:58 AM EST (11/27) 11:03 PM EST (11/27)
Length of Visible Light 10h 41m
Length of Day
9h 42m
Waxing Crescent, 31% of the Moon is Illuminated
Nov 27
Waxing Crescent
Nov 29
First Quarter
Dec 6
Full
Dec 14
Last Quarter
Dec 21
New

Hourly Weather History & Observations

Time (EST) Temp. Windchill Dew Point Humidity Pressure Visibility Wind Dir Wind Speed Gust Speed Precip Events Conditions
12:53 AM 30.0 °F 22.4 °F 25.0 °F 82% 30.12 in 10.0 mi North 8.1 mph - 0.00 in   Overcast
1:08 AM 30.0 °F 22.4 °F 25.0 °F 82% 30.10 in 10.0 mi North 8.1 mph - N/A   Overcast
1:53 AM 28.9 °F 20.4 °F 24.1 °F 82% 30.15 in 8.0 mi North 9.2 mph - N/A   Overcast
2:09 AM 28.9 °F 21.1 °F 24.1 °F 82% 30.13 in 9.0 mi North 8.1 mph - N/A   Overcast
2:17 AM 28.9 °F 21.1 °F 24.1 °F 82% 30.13 in 9.0 mi North 8.1 mph - N/A   Overcast
2:53 AM 28.0 °F 19.3 °F 24.1 °F 85% 30.17 in 6.0 mi North 9.2 mph - 0.00 in Snow Light Snow
3:22 AM 28.0 °F 19.3 °F 24.1 °F 85% 30.16 in 9.0 mi North 9.2 mph - 0.00 in   Overcast
3:53 AM 28.0 °F 20.8 °F 23.0 °F 81% 30.19 in 10.0 mi North 6.9 mph - 0.00 in   Overcast
4:53 AM 28.0 °F 19.3 °F 21.9 °F 78% 30.21 in 10.0 mi North 9.2 mph 18.4 mph N/A   Overcast
5:53 AM 28.0 °F 20.8 °F 21.0 °F 75% 30.25 in 10.0 mi Variable 6.9 mph - N/A   Overcast
6:53 AM 27.0 °F 18.7 °F 21.0 °F 78% 30.27 in 10.0 mi NNW 8.1 mph - N/A   Mostly Cloudy
7:07 AM 27.0 °F 20.5 °F 21.0 °F 78% 30.26 in 9.0 mi NW 5.8 mph - N/A   Scattered Clouds
7:17 AM 26.1 °F 21.9 °F 21.0 °F 81% 30.26 in 9.0 mi NNW 3.5 mph - N/A   Mostly Cloudy
7:53 AM 26.1 °F 19.4 °F 19.9 °F 78% 30.31 in 8.0 mi NNW 5.8 mph - N/A   Partly Cloudy
8:53 AM 27.0 °F 18.7 °F 21.0 °F 78% 30.32 in 7.0 mi West 8.1 mph - N/A   Partly Cloudy
9:53 AM 27.0 °F 16.1 °F 21.9 °F 81% 30.36 in 6.0 mi West 12.7 mph 19.6 mph N/A   Haze
10:03 AM 27.0 °F 17.3 °F 21.9 °F 81% 30.34 in 5.0 mi WNW 10.4 mph - N/A   Haze
10:53 AM 28.0 °F 20.8 °F 21.9 °F 78% 30.38 in 6.0 mi Variable 6.9 mph - N/A   Haze
11:00 AM 28.0 °F 20.0 °F 21.9 °F 78% 30.35 in 6.0 mi WNW 8.1 mph - N/A   Haze
11:07 AM 28.0 °F 20.8 °F 21.9 °F 78% 30.36 in 6.0 mi West 6.9 mph - N/A   Haze
11:22 AM 28.9 °F 19.2 °F 21.9 °F 75% 30.36 in 6.0 mi WNW 11.5 mph - N/A   Haze
11:53 AM 30.0 °F 22.4 °F 21.9 °F 72% 30.38 in 8.0 mi WNW 8.1 mph - N/A   Overcast
12:36 PM 30.0 °F 20.5 °F 21.9 °F 72% 30.35 in 7.0 mi WNW 11.5 mph - N/A   Overcast
12:53 PM 30.0 °F 21.1 °F 21.0 °F 69% 30.38 in 7.0 mi West 10.4 mph - N/A   Overcast
1:53 PM 30.0 °F 21.1 °F 21.9 °F 72% 30.37 in 8.0 mi WNW 10.4 mph - 0.00 in   Overcast
2:53 PM 28.0 °F 21.7 °F 21.0 °F 75% 30.38 in 8.0 mi WNW 5.8 mph - N/A   Overcast
3:53 PM 28.0 °F 19.3 °F 19.9 °F 72% 30.39 in 10.0 mi West 9.2 mph - N/A   Overcast
4:31 PM 28.0 °F 20.8 °F 21.0 °F 75% 30.38 in 2.5 mi WNW 6.9 mph - 0.00 in Snow Light Snow
4:34 PM 28.0 °F 18.6 °F 21.0 °F 75% 30.38 in 1.8 mi WNW 10.4 mph - 0.00 in Snow Light Snow
4:50 PM 26.6 °F 18.2 °F 21.2 °F 80% 30.38 in 2.0 mi WNW 8.1 mph - 0.00 in Snow Light Snow
4:53 PM 27.0 °F 18.0 °F 21.9 °F 81% 30.41 in 3.0 mi WNW 9.2 mph - 0.00 in Snow Light Snow
5:18 PM 27.0 °F 18.7 °F 23.0 °F 85% 30.38 in 2.0 mi WNW 8.1 mph - 0.00 in Snow Light Snow
5:25 PM 27.0 °F 19.5 °F 23.0 °F 85% 30.39 in 1.5 mi WNW 6.9 mph - 0.00 in Snow Light Snow
5:31 PM 27.0 °F 19.5 °F 23.0 °F 85% 30.39 in 3.0 mi West 6.9 mph - 0.00 in Snow Light Snow
5:53 PM 27.0 °F 19.5 °F 23.0 °F 85% 30.42 in 3.0 mi WNW 6.9 mph - 0.00 in Snow Light Snow
6:00 PM 27.0 °F 20.5 °F 23.0 °F 85% 30.39 in 2.0 mi WNW 5.8 mph - 0.00 in Snow Light Snow
6:13 PM 27.0 °F 21.6 °F 24.1 °F 89% 30.39 in 1.8 mi WNW 4.6 mph - 0.00 in Snow Light Snow
6:18 PM 27.0 °F 23.0 °F 23.0 °F 85% 30.39 in 3.0 mi WNW 3.5 mph - 0.00 in Snow Light Snow
6:53 PM 27.0 °F 20.5 °F 23.0 °F 85% 30.43 in 7.0 mi WNW 5.8 mph - 0.00 in Snow Light Snow
7:25 PM 27.0 °F 21.6 °F 23.0 °F 85% 30.41 in 3.0 mi WNW 4.6 mph - 0.00 in Snow Light Snow
7:46 PM 27.0 °F 16.7 °F 23.0 °F 85% 30.41 in 5.0 mi WNW 11.5 mph - 0.00 in Snow Light Snow
7:53 PM 27.0 °F 18.0 °F 21.9 °F 81% 30.45 in 5.0 mi WNW 9.2 mph - 0.00 in Snow Light Snow
8:21 PM 26.1 °F 17.6 °F 21.0 °F 81% 30.41 in 4.0 mi West 8.1 mph - 0.00 in Snow Light Snow
8:53 PM 26.1 °F 17.6 °F 19.9 °F 78% 30.44 in 8.0 mi WNW 8.1 mph - 0.00 in   Overcast
9:53 PM 24.1 °F 16.0 °F 19.9 °F 84% 30.44 in 8.0 mi West 6.9 mph - 0.00 in   Mostly Cloudy
10:00 PM 25.0 °F 19.3 °F 19.9 °F 81% 30.41 in 9.0 mi West 4.6 mph - N/A   Mostly Cloudy
10:42 PM 23.0 °F 15.8 °F 19.0 °F 85% 30.41 in 9.0 mi WNW 5.8 mph - N/A   Scattered Clouds
10:53 PM 21.9 °F 14.5 °F 19.0 °F 89% 30.44 in 8.0 mi WNW 5.8 mph - N/A   Scattered Clouds
11:50 PM 21.2 °F 13.6 °F 17.6 °F 86% 30.42 in 8.0 mi WNW 5.8 mph - N/A   Mostly Cloudy
11:53 PM 21.9 °F 13.4 °F 18.0 °F 85% 30.45 in 8.0 mi West 6.9 mph - N/A   Mostly Cloudy